{"data":{"norad_id":27844,"epoch":"2026-09-19T07:23:53.219040Z","epoch_age_seconds":117390,"freshness":"FRESH","line1":"1 27844U 03031E   26262.30825485  .00000177  00000+0  95427-4 0  9990","line2":"2 27844  98.6773 269.7000 0008369 273.0739  86.9482 14.24383016205071","mean_motion":14.24383016,"eccentricity":0.0008369,"inclination_deg":98.6773,"raan_deg":269.7,"arg_perigee_deg":273.0739,"mean_anomaly_deg":86.9482,"bstar":9.5427e-5,"rev_number":20507,"period_min":101.09640341289,"perigee_km":804.55157829694,"apogee_km":816.58403240013,"semimajor_km":7188.7048053485,"source":"CELESTRAK","updated_at":"2026-09-20T09:00:47.985538Z"}}